Location: Songkhla
(7.2000°N, 100.6000°E)
Time: 07:56:36
(UTC+07:00)

SJ-6B - Pass Details

Date: 16 April 2026
Orbit: 453 x 498 km, 97.3° (Epoch: 17 May)

Event Time Altitude Azimuth Distance (km) Brightness Sun altitude
Exits shadow 19:46:12 54° 49° (NE) 613 2.8 -20.3°
Drops below altitude 10° 19:49:25 10° 359° (N) 1,696 5.5 -21.0°
Sets 19:51:30 0° 356° (N) 2,576 6.5 -21.6°
